Wind_Speed
5 6 7 7 6 4 6 3 3 4 7 11 12 11 12 13 13 7 11 12 10 7 6 4 4 4 5 6 6 6 7 7 7 6 5 5 5 5 5 7 7 8 7 7 6 6 6 6 5
7 7 8 9 7 7 4 1 2 4 8 11 11 12 12 12 12 12 9 8 8 7 7 7 8 8 7 7 7 6 6 7 7 6 5 5 5 5 7 6 7 7 6 8 8 8 8 8 6
7 8 8 6 6 3 2 2 6 8 10 11 11 10 11 12 11 10 9 8 7 8 9 11 11 11 11 10 9 8 8 7 6 6 5 5 4 5 7 7 8 7 7 7 8 10 9 9 8
8 8 8 11 11 8 6 5 9 7 9 9 11 9 12 11 10 9 8 9 7 7 8 9 12 13 14 13 12 11 11 10 10 8 6 6 6 6 7 8 8 8 9 9 9 10 10 10 11
8 9 10 11 11 11 10 11 11 8 9 10 11 12 12 10 9 8 9 10 9 9 10 10 11 13 15 15 14 14 13 12 12 11 10 9 9 9 10 10 9 9 9 10 11 11 12 12 12
9 8 10 12 12 12 11 9 10 8 10 10 13 15 14 6 6 10 10 9 11 11 11 12 13 13 14 15 16 16 16 15 14 14 13 12 11 11 10 10 11 11 10 11 12 12 13 14 14
10 12 16 16 15 12 9 10 11 11 12 12 15 16 9 13 16 14 13 13 12 12 11 11 12 13 14 15 16 17 16 16 16 16 16 15 13 12 12 11 11 12 13 13 14 15 16 17 17
12 15 18 16 16 17 14 12 14 16 14 16 17 16 15 15 14 14 14 14 14 14 13 12 12 14 15 15 16 17 17 17 17 17 17 17 15 14 13 12 12 12 14 15 16 17 19 20 21
15 18 20 18 17 17 18 20 20 23 20 18 15 14 17 18 17 16 16 16 15 15 15 15 15 15 15 16 17 18 17 18 18 18 17 18 17 17 16 14 14 15 15 16 16 17 19 21 23
21 24 23 21 21 24 25 25 24 26 25 17 18 14 18 15 12 14 16 16 17 16 17 19 19 19 18 18 18 18 18 19 19 19 20 20 19 20 18 17 17 17 17 18 17 18 19 21 22
27 28 23 26 24 27 28 27 27 28 27 18 20 19 18 18 20 19 19 19 19 19 20 21 22 22 22 21 20 20 20 20 20 20 21 22 22 21 21 20 19 18 18 19 19 19 20 21 22
30 30 28 30 29 29 30 32 33 31 25 21 20 25 26 22 23 24 24 22 20 21 19 19 22 25 25 24 23 22 23 22 22 22 24 24 24 24 24 22 21 20 20 19 20 20 20 20 21
32 31 32 33 35 34 33 32 35 36 25 25 24 27 28 29 28 27 29 27 24 21 21 19 21 23 25 27 25 24 24 23 23 25 26 27 26 26 26 25 24 23 22 21 21 20 21 22 22
36 36 35 38 37 36 37 36 40 35 30 31 30 28 28 30 28 30 30 30 28 24 21 25 24 25 26 28 27 26 26 26 26 27 28 29 29 29 29 28 27 26 25 24 22 21 22 22 24
33 36 39 40 41 41 40 44 42 37 37 35 32 32 31 30 31 33 32 32 30 29 29 26 25 28 29 29 30 31 29 29 29 29 30 31 32 32 31 30 30 29 28 27 25 24 23 23 24
36 38 41 37 36 39 39 47 39 37 40 41 38 35 36 34 33 33 33 34 34 35 35 35 34 31 32 32 32 34 34 33 32 32 33 33 34 34 34 34 33 32 31 30 28 26 25 24 25
35 35 40 39 36 41 42 48 44 39 42 43 41 40 38 37 33 32 33 37 39 40 42 43 42 39 37 36 37 37 37 37 37 38 37 38 38 37 37 36 36 36 34 32 30 28 27 26 26
40 39 39 41 38 43 50 54 47 42 42 43 41 38 33 31 29 26 28 32 37 38 42 45 46 45 42 43 43 42 40 39 38 37 39 41 42 41 40 39 39 38 37 35 31 30 29 28 27
36 39 42 43 40 45 46 49 44 41 37 36 34 29 26 25 24 12 14 15 19 27 35 38 42 43 44 44 43 43 41 39 37 36 36 39 43 42 42 41 41 41 38 35 35 32 30 29 28
33 36 41 45 33 39 45 51 46 35 26 31 30 21 15 4 7 11 14 15 18 18 23 29 36 38 41 43 41 41 40 40 38 38 39 41 43 42 42 43 42 41 38 38 36 33 32 30 29
35 34 35 38 36 39 42 37 21 23 31 15 17 12 5 13 13 21 24 21 24 24 23 24 26 32 34 38 42 44 44 43 40 40 42 42 42 42 42 42 42 40 39 38 37 36 33 32 30
28 22 26 31 31 19 29 20 32 17 11 14 6 8 13 18 19 29 32 42 34 32 27 28 27 26 26 25 27 29 29 31 30 34 38 39 40 41 41 42 42 41 41 40 38 37 35 32 29
26 28 29 33 34 33 17 14 23 24 11 10 10 11 20 27 32 36 44 32 32 28 24 21 28 27 25 23 23 27 29 30 29 34 36 39 41 42 42 42 44 43 42 41 39 38 34 33 32
30 30 27 23 22 9 17 12 12 4 10 7 12 19 38 43 33 26 21 23 27 29 25 23 24 19 21 19 19 23 28 30 32 35 34 37 41 42 43 43 44 44 43 41 39 37 36 35 33
26 23 6 3 2 8 2 10 26 21 22 26 29 36 28 14 20 22 25 25 25 24 25 18 19 22 24 23 23 21 23 25 28 30 32 35 38 41 41 42 43 44 42 40 40 39 38 36 32
28 27 17 7 5 10 27 16 42 36 41 45 23 15 15 14 18 21 28 30 23 25 28 22 20 20 20 23 23 23 22 22 23 25 28 31 35 38 39 40 42 43 42 42 41 40 39 36 32
22 24 30 32 31 10 28 33 49 56 26 15 28 29 26 25 29 34 34 35 33 30 27 21 18 20 19 17 18 19 20 20 21 22 24 24 28 33 38 42 43 44 43 43 42 40 37 34 33
34 35 17 12 3 11 14 30 33 45 41 37 36 34 26 28 28 29 33 39 39 38 34 35 33 31 29 30 25 21 19 19 19 19 18 19 21 27 35 41 44 47 47 45 42 40 37 36 34
22 26 31 31 27 11 13 15 33 38 38 42 38 34 36 39 42 37 31 37 46 44 37 30 31 37 40 44 42 38 38 39 33 27 24 25 25 24 28 37 44 47 47 47 44 40 38 38 35
41 33 30 14 12 26 27 18 31 34 37 36 45 49 52 49 42 37 32 31 35 44 46 47 45 43 45 49 52 52 51 44 41 37 34 36 38 37 35 34 44 50 51 52 50 45 41 43 40
Wind_Direction
264 274 282 294 296 266 277 301 348 339 333 342 339 329 311 316 324 313 318 314 318 309 281 264 257 233 220 228 225 208 204 208 212 209 220 236 243 257 269 268 284 295 297 296 278 281 274 272 276
265 274 281 287 274 274 307 227 339 319 317 325 327 325 320 329 340 327 330 323 313 284 283 285 274 255 242 230 232 240 223 207 200 208 206 226 239 252 261 278 279 285 289 284 286 281 274 266 261
259 268 277 273 262 295 10 349 302 298 308 320 326 327 323 341 333 328 318 314 304 286 275 276 277 266 258 251 237 232 239 229 227 245 254 251 264 279 294 294 291 292 283 278 284 284 283 282 274
267 267 264 260 275 288 306 317 320 312 306 322 330 344 334 333 316 303 293 299 298 273 261 271 268 264 262 259 252 241 236 244 253 262 268 277 291 297 295 295 294 296 293 292 284 286 288 287 284
274 269 261 279 301 311 299 288 294 303 310 321 326 329 344 333 319 312 301 292 287 279 268 260 254 256 259 255 253 253 246 243 248 256 263 273 284 296 302 303 297 292 291 292 294 295 295 291 287
277 281 276 292 308 317 312 292 295 292 305 315 317 326 348 354 8 335 325 309 297 286 273 261 259 251 247 248 250 251 251 248 246 247 256 266 281 293 296 297 297 298 294 290 291 292 290 290 289
289 286 284 296 317 333 324 308 305 299 302 305 310 323 343 320 312 312 300 301 298 292 280 263 254 249 246 245 243 246 249 249 250 249 251 254 261 272 280 284 282 283 285 288 287 287 286 287 286
292 291 290 301 316 320 318 313 307 306 307 308 316 322 326 316 307 303 303 301 298 292 281 269 260 256 254 249 244 244 245 246 245 244 246 252 257 262 267 274 275 275 278 278 280 282 281 280 280
292 285 291 303 313 314 307 303 305 300 304 311 318 320 321 316 307 302 298 295 291 281 277 271 265 259 256 251 249 247 246 250 250 249 249 249 251 255 262 270 277 279 279 278 278 280 281 280 278
288 284 294 300 301 301 299 298 301 297 303 314 310 312 320 316 324 323 316 301 287 279 265 261 262 262 260 257 253 252 250 249 249 250 251 250 250 253 258 265 273 277 279 278 277 277 278 278 277
285 285 294 293 295 292 291 293 293 295 299 313 303 298 306 300 297 304 307 304 299 282 271 263 259 259 259 259 258 255 253 253 254 253 252 253 254 254 253 258 263 270 271 271 272 273 274 277 276
283 287 292 292 290 285 288 290 292 293 299 313 293 290 292 296 293 292 301 304 298 290 284 277 271 264 263 261 260 258 257 255 254 252 252 253 252 254 256 257 260 263 267 267 268 271 273 275 277
285 290 291 293 291 293 291 288 293 285 300 294 288 285 287 286 286 282 286 292 291 285 274 275 274 271 265 263 261 259 258 257 257 254 252 251 251 251 253 255 258 261 264 266 267 270 274 276 278
289 291 292 290 291 294 295 295 289 288 302 293 289 284 284 286 286 278 281 282 282 276 276 272 272 272 269 267 265 262 258 255 253 255 255 254 253 251 251 253 257 260 262 265 268 271 273 277 277
285 287 288 289 296 297 299 292 287 298 301 296 290 288 284 281 280 281 281 279 279 274 268 267 268 264 265 265 265 265 263 258 256 256 256 256 256 255 253 252 254 256 259 263 265 269 273 277 278
282 284 286 305 305 300 298 290 294 301 299 298 293 287 287 287 284 282 281 279 272 269 266 262 258 257 255 258 261 262 263 262 260 260 258 257 256 255 254 253 254 256 257 260 265 269 274 280 282
281 279 291 300 295 298 295 294 298 298 298 293 292 293 295 296 293 291 283 276 270 264 261 261 258 255 253 250 253 258 262 262 263 261 261 259 255 253 253 253 253 254 256 258 262 268 273 276 280
292 291 291 293 299 296 296 293 297 296 292 293 297 300 300 301 300 291 289 279 271 264 261 261 261 258 252 252 250 254 260 263 264 267 266 262 257 253 251 251 252 254 255 257 261 264 268 272 276
287 286 288 291 300 296 290 293 294 298 301 303 306 308 307 304 302 305 313 309 300 280 265 261 262 259 254 251 254 256 262 264 265 264 263 261 258 255 253 252 251 251 253 255 256 259 265 269 273
283 284 289 296 309 301 301 297 300 305 305 311 313 312 319 24 46 353 335 315 318 295 273 266 262 260 254 251 253 254 258 261 263 258 257 254 254 255 253 250 251 250 250 250 254 257 261 263 265
285 288 301 304 309 302 304 307 310 295 315 318 314 313 6 341 325 326 320 317 311 298 277 275 272 266 257 256 257 261 263 265 263 262 260 258 258 257 254 250 250 250 247 247 249 252 255 258 260
287 305 307 305 306 302 306 301 304 332 322 339 317 124 351 358 336 322 315 311 309 294 282 269 265 266 269 265 261 261 263 264 262 263 261 259 258 257 256 250 248 247 244 244 246 249 251 254 257
292 303 298 296 292 295 296 280 304 305 321 122 89 5 343 328 313 303 305 297 294 302 306 300 277 272 270 264 264 260 260 264 264 262 256 251 250 250 251 249 244 242 240 241 244 247 251 252 252
295 291 286 286 279 280 290 250 329 21 119 134 325 314 308 304 292 286 280 284 291 302 302 298 274 261 253 256 264 267 266 263 265 268 263 259 254 249 247 246 244 240 238 239 243 247 248 249 251
282 273 296 297 152 228 242 285 261 268 296 301 304 301 295 283 268 266 271 283 292 298 304 294 260 245 233 235 246 260 263 265 266 262 260 257 254 253 253 250 243 237 238 239 241 244 244 248 253
279 259 227 212 224 261 276 258 273 282 290 299 286 294 300 261 255 272 286 286 288 294 287 287 267 248 240 244 244 245 250 250 251 255 258 254 252 250 246 242 238 236 236 235 237 239 240 246 251
266 250 265 255 257 278 263 265 278 288 300 253 292 287 275 258 267 280 284 282 286 297 292 287 276 263 256 257 256 256 260 256 249 243 240 244 247 247 243 237 235 234 234 236 238 242 247 249 251
256 263 253 239 220 241 228 251 260 280 278 288 291 285 277 269 268 275 286 289 292 296 306 297 283 275 278 283 284 282 288 277 259 253 253 253 257 256 247 241 237 232 231 233 238 246 249 255 254
264 261 262 262 252 263 265 252 258 265 278 284 282 292 299 300 298 296 286 280 286 298 300 292 285 283 285 283 286 282 282 286 281 272 262 266 265 262 259 253 245 240 235 235 240 250 255 261 259
273 263 249 247 262 265 263 263 272 263 269 278 289 294 296 295 294 294 291 286 279 277 282 287 284 282 281 285 291 292 289 285 279 278 273 263 254 259 261 253 249 241 239 239 240 247 254 262 261
Height
3186 3186 3186 3186 3189 3185 3184 3185 3184 3185 3185 3184 3183 3183 3183 3182 3182 3185 3182 3181 3180 3180 3180 3181 3182 3183 3184 3185 3186 3187 3187 3188 3189 3190 3192 3193 3193 3193 3193 3193 3192 3193 3194 3194 3195 3196 3197 3198 3198
3185 3185 3186 3185 3186 3183 3183 3184 3184 3184 3184 3183 3183 3182 3181 3181 3181 3181 3181 3180 3180 3180 3180 3180 3181 3182 3183 3184 3185 3185 3186 3187 3188 3189 3190 3191 3192 3191 3192 3192 3193 3193 3193 3194 3194 3195 3196 3197 3197
3184 3184 3185 3183 3182 3183 3184 3184 3184 3184 3183 3182 3181 3180 3179 3180 3180 3179 3179 3179 3179 3179 3179 3179 3179 3180 3181 3182 3183 3184 3185 3185 3186 3186 3187 3188 3188 3188 3188 3189 3190 3190 3192 3193 3193 3194 3194 3195 3195
3183 3184 3185 3182 3182 3183 3183 3183 3182 3182 3182 3181 3180 3180 3179 3178 3177 3177 3177 3177 3177 3177 3178 3178 3178 3178 3179 3180 3181 3182 3183 3183 3183 3184 3185 3185 3186 3186 3188 3188 3189 3188 3189 3190 3191 3192 3193 3193 3194
3183 3183 3182 3180 3181 3181 3182 3181 3181 3181 3180 3179 3178 3178 3178 3176 3175 3175 3175 3175 3175 3175 3175 3176 3176 3177 3177 3178 3179 3179 3180 3181 3181 3182 3182 3182 3183 3184 3184 3185 3186 3186 3187 3189 3189 3190 3190 3190 3191
3183 3183 3181 3180 3180 3180 3180 3179 3179 3179 3179 3178 3177 3176 3177 3175 3175 3175 3174 3174 3173 3173 3173 3173 3173 3174 3175 3175 3176 3177 3178 3178 3179 3179 3180 3180 3181 3181 3182 3182 3183 3183 3184 3186 3186 3187 3187 3188 3188
3183 3182 3180 3179 3179 3179 3178 3178 3178 3178 3178 3177 3176 3175 3176 3174 3173 3172 3172 3171 3171 3170 3170 3170 3171 3171 3172 3172 3173 3174 3175 3176 3177 3178 3178 3179 3180 3180 3180 3180 3181 3182 3182 3181 3182 3183 3183 3183 3183
3181 3180 3178 3177 3177 3177 3176 3176 3175 3175 3176 3175 3174 3173 3173 3171 3170 3170 3169 3169 3168 3168 3168 3168 3168 3168 3169 3169 3170 3171 3172 3173 3174 3175 3176 3176 3177 3178 3178 3179 3179 3179 3179 3179 3179 3180 3180 3180 3180
3178 3177 3175 3176 3176 3175 3174 3173 3173 3170 3172 3172 3172 3170 3169 3168 3166 3166 3166 3165 3165 3164 3164 3165 3164 3165 3165 3166 3167 3167 3168 3169 3170 3171 3172 3173 3174 3174 3175 3176 3176 3177 3176 3176 3177 3177 3177 3177 3177
3175 3173 3174 3174 3173 3171 3170 3169 3169 3167 3167 3169 3167 3168 3165 3164 3163 3162 3162 3161 3160 3160 3160 3159 3160 3160 3161 3162 3162 3163 3164 3165 3166 3167 3168 3169 3170 3171 3172 3172 3173 3173 3173 3173 3173 3173 3173 3173 3172
3169 3169 3172 3170 3170 3167 3165 3165 3164 3163 3162 3165 3163 3162 3162 3160 3159 3159 3158 3157 3156 3155 3155 3154 3154 3155 3156 3156 3157 3158 3159 3159 3160 3162 3163 3163 3165 3166 3167 3168 3169 3169 3169 3169 3169 3168 3168 3168 3167
3166 3165 3167 3165 3165 3163 3162 3160 3158 3158 3159 3160 3158 3155 3155 3155 3154 3153 3152 3152 3152 3151 3150 3150 3149 3149 3150 3150 3152 3153 3153 3154 3155 3156 3157 3158 3159 3161 3162 3163 3164 3164 3164 3164 3164 3164 3164 3164 3163
3161 3162 3161 3160 3157 3157 3157 3155 3152 3148 3155 3153 3152 3150 3149 3148 3148 3147 3146 3147 3146 3146 3146 3145 3144 3143 3143 3143 3145 3146 3147 3149 3150 3150 3151 3152 3154 3155 3156 3157 3158 3158 3159 3160 3160 3160 3159 3158 3157
3155 3155 3155 3153 3152 3150 3149 3150 3145 3144 3147 3146 3144 3144 3142 3141 3141 3140 3140 3140 3139 3139 3139 3138 3138 3137 3137 3137 3138 3139 3140 3141 3142 3143 3144 3145 3147 3148 3150 3151 3152 3153 3154 3154 3154 3154 3154 3153 3152
3148 3148 3148 3147 3147 3143 3140 3138 3137 3140 3137 3136 3137 3135 3135 3134 3133 3132 3133 3132 3133 3132 3131 3131 3130 3130 3130 3130 3131 3131 3133 3134 3135 3136 3137 3139 3140 3141 3142 3143 3145 3146 3147 3148 3148 3149 3149 3148 3147
3143 3140 3137 3142 3140 3135 3131 3123 3130 3132 3128 3126 3127 3127 3125 3126 3125 3124 3123 3122 3121 3120 3121 3120 3120 3120 3121 3122 3123 3123 3124 3125 3127 3128 3129 3130 3131 3132 3134 3135 3137 3138 3139 3141 3142 3142 3143 3142 3141
3137 3131 3131 3132 3134 3125 3123 3116 3122 3124 3119 3115 3115 3116 3116 3115 3117 3116 3113 3109 3107 3106 3106 3107 3109 3111 3111 3112 3112 3114 3116 3117 3118 3118 3120 3121 3121 3122 3124 3126 3128 3130 3132 3133 3134 3136 3136 3136 3135
3132 3128 3126 3125 3128 3120 3111 3104 3110 3114 3111 3109 3108 3108 3107 3106 3105 3104 3100 3097 3095 3095 3095 3094 3096 3099 3102 3101 3102 3103 3106 3107 3108 3110 3111 3112 3112 3113 3115 3117 3119 3121 3123 3125 3128 3129 3129 3129 3128
3127 3123 3119 3119 3120 3111 3104 3097 3099 3103 3104 3102 3102 3101 3100 3098 3097 3095 3094 3091 3089 3086 3085 3086 3086 3087 3089 3091 3091 3092 3095 3098 3099 3100 3101 3102 3102 3104 3106 3108 3110 3112 3116 3119 3120 3121 3123 3123 3121
3121 3117 3113 3109 3112 3104 3096 3088 3090 3095 3096 3095 3095 3095 3094 3092 3093 3091 3089 3086 3085 3083 3078 3077 3077 3077 3077 3079 3081 3081 3084 3086 3089 3089 3090 3090 3092 3094 3097 3099 3101 3104 3107 3109 3111 3114 3115 3115 3114
3115 3113 3109 3107 3104 3098 3087 3076 3083 3086 3088 3089 3090 3088 3089 3087 3085 3084 3083 3080 3078 3076 3075 3073 3070 3070 3070 3072 3072 3074 3075 3075 3077 3078 3079 3081 3083 3084 3086 3089 3091 3095 3097 3100 3102 3104 3106 3107 3108
3109 3112 3106 3104 3101 3095 3094 3070 3074 3077 3080 3083 3082 3084 3083 3083 3081 3076 3072 3072 3072 3069 3067 3066 3066 3065 3065 3065 3065 3065 3065 3065 3068 3069 3072 3073 3075 3075 3076 3078 3081 3084 3087 3090 3093 3095 3097 3099 3100
3101 3104 3103 3098 3096 3090 3087 3089 3070 3074 3074 3078 3080 3082 3081 3078 3073 3069 3070 3067 3063 3060 3060 3059 3060 3060 3060 3060 3060 3058 3057 3058 3059 3058 3060 3061 3063 3065 3066 3068 3070 3072 3076 3080 3083 3085 3088 3090 3092
3097 3096 3095 3093 3092 3091 3084 3085 3066 3069 3071 3075 3077 3079 3075 3071 3069 3066 3064 3062 3059 3057 3052 3051 3050 3050 3050 3051 3052 3052 3052 3050 3049 3049 3049 3051 3052 3053 3056 3058 3060 3063 3066 3070 3073 3076 3078 3081 3082
3093 3092 3092 3092 3091 3083 3081 3080 3062 3069 3074 3074 3075 3073 3065 3063 3061 3060 3060 3056 3053 3051 3049 3046 3044 3040 3039 3037 3037 3040 3041 3041 3042 3040 3039 3041 3042 3044 3047 3048 3051 3054 3058 3061 3063 3065 3068 3071 3073
3087 3087 3085 3085 3081 3073 3076 3069 3050 3061 3067 3070 3063 3060 3059 3056 3055 3052 3051 3050 3047 3044 3041 3042 3041 3037 3032 3030 3030 3029 3029 3027 3028 3030 3030 3030 3032 3034 3036 3038 3040 3044 3048 3050 3052 3054 3057 3060 3062
3078 3079 3080 3072 3069 3069 3062 3058 3055 3051 3060 3054 3053 3052 3053 3051 3048 3045 3041 3041 3040 3036 3037 3036 3035 3033 3031 3028 3027 3025 3024 3023 3022 3020 3017 3018 3020 3023 3025 3028 3031 3034 3037 3040 3042 3046 3050 3052 3053
3072 3071 3069 3069 3067 3059 3051 3048 3048 3044 3042 3044 3046 3044 3042 3041 3042 3038 3034 3033 3031 3028 3024 3026 3028 3026 3024 3024 3022 3020 3020 3018 3016 3013 3010 3011 3013 3014 3015 3017 3020 3022 3025 3028 3032 3035 3038 3041 3044
3064 3062 3061 3061 3058 3049 3044 3039 3042 3040 3036 3033 3034 3031 3029 3031 3033 3029 3026 3027 3024 3020 3016 3016 3016 3017 3013 3014 3013 3013 3012 3012 3012 3007 3005 3005 3006 3006 3007 3010 3012 3015 3016 3018 3020 3024 3028 3030 3032
3053 3053 3052 3051 3044 3042 3039 3032 3035 3034 3027 3027 3024 3020 3019 3022 3023 3020 3018 3015 3014 3011 3010 3008 3005 3005 3002 3003 3001 3001 3001 3002 3002 2995 2993 2994 2997 2997 2997 2998 3001 3001 3005 3007 3009 3010 3014 3017 3021